Total_Precipitation_Accumulation
0.81 0.83 0.71 0.52 0.48 0.45 0.40 0.34 0.27 0.17 0.16 0.24 0.22 0.17 0.12 0.12 0.13 0.11 0.10 0.11 0.10 0.10 0.09 0.11 0.16 0.20 0.24 0.32 0.41 0.46 0.50 0.59 0.72 0.83 0.89 0.88 0.95 0.91 0.82 0.76 0.79 0.81 0.79 0.73
0.89 0.70 0.34 0.24 0.30 0.38 0.45 0.44 0.29 0.20 0.19 0.26 0.22 0.14 0.09 0.09 0.11 0.10 0.10 0.10 0.09 0.09 0.10 0.11 0.16 0.24 0.28 0.32 0.40 0.48 0.50 0.54 0.62 0.65 0.73 0.79 0.80 0.84 0.84 0.78 0.77 0.82 0.84 0.78
0.65 0.43 0.22 0.25 0.35 0.43 0.43 0.40 0.30 0.24 0.22 0.26 0.26 0.20 0.09 0.07 0.07 0.08 0.08 0.09 0.08 0.09 0.10 0.10 0.13 0.23 0.28 0.30 0.38 0.44 0.51 0.51 0.59 0.65 0.78 0.87 0.93 0.95 0.93 0.88 0.83 0.81 0.83 0.81
0.45 0.30 0.30 0.35 0.35 0.40 0.44 0.28 0.26 0.28 0.39 0.43 0.33 0.36 0.10 0.07 0.08 0.09 0.09 0.09 0.09 0.10 0.11 0.10 0.12 0.19 0.25 0.28 0.37 0.44 0.52 0.59 0.60 0.69 0.79 0.79 0.80 0.81 0.75 0.75 0.77 0.81 0.84 0.83
0.47 0.33 0.39 0.42 0.29 0.30 0.34 0.27 0.31 0.34 0.44 0.50 0.32 0.37 0.13 0.06 0.11 0.14 0.14 0.13 0.11 0.11 0.12 0.11 0.12 0.17 0.23 0.29 0.37 0.46 0.51 0.63 0.66 0.67 0.74 0.74 0.70 0.69 0.72 0.78 0.82 0.83 0.86 0.89
0.39 0.31 0.37 0.32 0.23 0.25 0.34 0.44 0.57 0.59 0.76 0.86 0.30 0.27 0.16 0.11 0.16 0.15 0.13 0.14 0.16 0.15 0.15 0.15 0.14 0.17 0.23 0.30 0.39 0.44 0.51 0.62 0.71 0.70 0.75 0.75 0.72 0.70 0.76 0.81 0.89 0.90 0.91 0.95
0.59 0.42 0.41 0.35 0.40 0.43 0.59 0.94 1.39 1.47 1.42 0.81 0.15 0.16 0.16 0.12 0.11 0.13 0.11 0.12 0.18 0.20 0.20 0.20 0.17 0.19 0.22 0.29 0.39 0.44 0.48 0.61 0.71 0.72 0.74 0.75 0.71 0.70 0.73 0.78 0.83 0.87 0.90 0.94
0.75 0.56 0.42 0.42 0.48 0.60 0.64 0.82 1.09 1.09 0.76 0.29 0.09 0.11 0.11 0.08 0.05 0.06 0.06 0.07 0.10 0.14 0.21 0.23 0.19 0.21 0.24 0.28 0.35 0.42 0.45 0.54 0.69 0.70 0.71 0.73 0.72 0.69 0.70 0.74 0.77 0.82 0.80 0.80
0.83 0.57 0.31 0.29 0.28 0.41 0.60 0.63 0.55 0.73 0.53 0.30 0.16 0.10 0.09 0.06 0.04 0.04 0.06 0.08 0.09 0.10 0.15 0.22 0.20 0.23 0.26 0.31 0.33 0.41 0.47 0.53 0.67 0.74 0.71 0.73 0.75 0.73 0.67 0.70 0.74 0.81 0.80 0.73
0.94 0.73 0.36 0.31 0.37 0.44 0.54 0.62 0.75 1.08 0.87 0.46 0.20 0.13 0.15 0.12 0.07 0.05 0.07 0.10 0.10 0.11 0.14 0.18 0.18 0.22 0.28 0.33 0.32 0.37 0.48 0.52 0.61 0.71 0.74 0.76 0.79 0.78 0.72 0.71 0.73 0.74 0.78 0.79
0.86 0.92 0.58 0.52 0.61 0.57 0.57 0.77 1.03 1.08 0.78 0.60 0.36 0.23 0.22 0.17 0.10 0.08 0.08 0.10 0.12 0.11 0.14 0.16 0.17 0.21 0.28 0.32 0.32 0.33 0.41 0.52 0.61 0.67 0.70 0.77 0.87 0.85 0.83 0.80 0.75 0.71 0.72 0.80
0.86 1.07 0.81 0.54 0.46 0.41 0.54 0.67 0.84 1.08 0.83 0.47 0.41 0.30 0.21 0.15 0.11 0.09 0.08 0.10 0.12 0.12 0.14 0.15 0.16 0.20 0.24 0.28 0.32 0.34 0.39 0.47 0.58 0.68 0.70 0.73 0.84 0.91 0.89 0.94 0.91 0.81 0.73 0.75
1.07 1.40 1.23 0.93 0.81 0.69 0.72 0.65 0.66 0.75 0.77 0.56 0.47 0.31 0.19 0.14 0.11 0.09 0.08 0.09 0.12 0.14 0.17 0.16 0.15 0.18 0.22 0.25 0.31 0.34 0.37 0.42 0.52 0.67 0.72 0.75 0.79 0.88 0.90 0.93 1.00 0.99 0.96 0.97
1.30 1.47 1.11 1.01 0.91 0.82 0.76 0.56 0.53 0.77 0.90 0.58 0.37 0.26 0.18 0.16 0.13 0.11 0.09 0.09 0.11 0.15 0.17 0.16 0.16 0.17 0.21 0.25 0.29 0.32 0.33 0.40 0.49 0.65 0.76 0.78 0.81 0.82 0.86 0.91 0.96 1.09 1.17 1.25
1.36 1.32 0.60 0.38 0.36 0.43 0.47 0.39 0.39 0.56 0.56 0.47 0.27 0.24 0.27 0.22 0.17 0.15 0.13 0.11 0.11 0.14 0.14 0.14 0.15 0.17 0.20 0.23 0.26 0.28 0.30 0.36 0.45 0.61 0.71 0.77 0.83 0.93 1.00 1.02 1.05 1.10 1.23 1.32
1.27 1.21 0.59 0.32 0.22 0.28 0.33 0.24 0.25 0.28 0.27 0.28 0.23 0.26 0.27 0.22 0.17 0.15 0.15 0.13 0.13 0.14 0.12 0.12 0.14 0.18 0.20 0.22 0.25 0.25 0.26 0.33 0.42 0.57 0.65 0.73 0.87 0.98 1.11 1.13 1.18 1.20 1.25 1.34
1.08 1.04 0.89 0.53 0.25 0.42 0.48 0.26 0.22 0.24 0.23 0.23 0.29 0.30 0.24 0.22 0.19 0.17 0.16 0.16 0.14 0.12 0.11 0.11 0.13 0.17 0.20 0.22 0.22 0.23 0.26 0.30 0.36 0.48 0.60 0.67 0.81 0.94 1.04 1.07 1.11 1.15 1.09 1.08
0.85 0.96 1.17 0.81 0.59 0.83 0.41 0.19 0.18 0.21 0.23 0.23 0.25 0.25 0.23 0.24 0.22 0.18 0.16 0.16 0.13 0.12 0.12 0.12 0.14 0.15 0.16 0.19 0.20 0.20 0.22 0.26 0.35 0.42 0.55 0.59 0.69 0.83 0.90 0.96 1.01 1.03 0.97 0.95
0.50 0.89 1.36 1.12 0.84 0.48 0.22 0.16 0.21 0.28 0.34 0.25 0.23 0.22 0.20 0.19 0.21 0.23 0.21 0.15 0.13 0.12 0.11 0.12 0.13 0.13 0.13 0.16 0.19 0.19 0.19 0.22 0.28 0.35 0.46 0.53 0.62 0.78 0.79 0.85 0.95 0.94 0.95 0.92
0.48 0.86 1.45 1.24 0.93 0.48 0.24 0.13 0.15 0.26 0.43 0.25 0.19 0.21 0.21 0.20 0.33 0.31 0.26 0.19 0.15 0.11 0.10 0.10 0.11 0.10 0.12 0.14 0.16 0.16 0.17 0.20 0.25 0.32 0.39 0.44 0.50 0.65 0.68 0.70 0.76 0.78 0.81 0.83
0.77 1.16 1.35 1.01 0.79 0.36 0.20 0.15 0.18 0.47 0.55 0.23 0.17 0.18 0.19 0.25 0.34 0.29 0.24 0.21 0.17 0.14 0.12 0.11 0.11 0.11 0.12 0.14 0.16 0.16 0.16 0.19 0.24 0.29 0.33 0.38 0.42 0.50 0.54 0.59 0.62 0.67 0.71 0.75
0.55 0.78 0.79 0.74 0.82 0.45 0.20 0.22 0.40 0.48 0.26 0.16 0.15 0.14 0.16 0.16 0.15 0.16 0.18 0.19 0.16 0.16 0.16 0.14 0.13 0.11 0.12 0.13 0.14 0.14 0.15 0.19 0.21 0.27 0.32 0.36 0.41 0.43 0.47 0.51 0.57 0.59 0.67 0.77
0.38 0.49 0.54 0.54 0.48 0.31 0.21 0.27 0.29 0.22 0.17 0.14 0.15 0.15 0.15 0.15 0.14 0.15 0.15 0.15 0.14 0.15 0.15 0.14 0.14 0.14 0.13 0.13 0.14 0.13 0.13 0.18 0.22 0.28 0.32 0.38 0.41 0.39 0.46 0.52 0.58 0.62 0.69 0.79
0.30 0.27 0.33 0.30 0.23 0.17 0.16 0.17 0.17 0.15 0.13 0.11 0.13 0.15 0.14 0.14 0.13 0.13 0.13 0.14 0.15 0.15 0.13 0.12 0.13 0.15 0.14 0.13 0.12 0.12 0.13 0.18 0.23 0.27 0.30 0.36 0.43 0.44 0.44 0.50 0.58 0.63 0.68 0.82
0.25 0.25 0.29 0.25 0.16 0.12 0.12 0.12 0.13 0.14 0.11 0.09 0.11 0.13 0.13 0.13 0.12 0.13 0.15 0.15 0.16 0.16 0.14 0.13 0.13 0.13 0.14 0.13 0.11 0.11 0.14 0.20 0.24 0.26 0.29 0.35 0.44 0.48 0.45 0.47 0.53 0.60 0.63 0.83
0.17 0.20 0.25 0.21 0.12 0.13 0.11 0.09 0.08 0.11 0.11 0.10 0.12 0.13 0.11 0.11 0.13 0.14 0.15 0.15 0.15 0.15 0.15 0.15 0.13 0.13 0.13 0.12 0.11 0.12 0.15 0.21 0.28 0.32 0.34 0.38 0.46 0.48 0.46 0.47 0.51 0.59 0.62 0.70